Location: Usti nad Orlici
(49.9830°N, 16.4000°E)
Time: 20:43:37
(UTC+02:00)

ISS - Pass Details

Date: 28 March 2019
Orbit: 408 x 410 km, 51.6° (Epoch: 22 April)

Event Time Altitude Azimuth Distance (km) Brightness Sun altitude
Rises 20:55:41 0° 282° (WNW) 2,338 1.1 -23.9°
Reaches altitude 10° 20:57:46 10° 284° (WNW) 1,475 -0.1 -24.1°
Enters shadow 20:59:49 34° 294° (WNW) 695 -2.2 -24.4°
